Temperature
18 18 18 18 18 18 18 18 18 18 18 18 18 18 18 18 18 18 18 18 18 18 18 17 17 17 17 17 17 17 17 17 17 17 17 17 17 16 16 16 16 16 16
18 18 18 18 18 18 18 18 18 18 18 18 18 18 18 18 18 18 18 18 18 18 18 17 17 17 17 17 17 17 17 17 17 17 17 17 17 16 16 16 16 16 16
18 18 18 18 18 18 18 18 18 18 18 18 18 18 18 18 18 18 18 18 18 18 18 18 17 17 17 17 17 17 17 17 17 17 17 17 17 16 16 16 16 16 16
18 18 18 18 18 18 18 18 18 18 18 18 18 18 18 18 18 18 18 18 18 18 18 18 17 17 17 17 17 17 17 17 17 17 17 17 17 17 16 16 16 16 16
18 18 18 18 18 17 17 18 18 18 18 18 18 18 18 18 18 18 18 18 18 17 17 17 17 17 17 17 17 17 17 17 17 17 17 17 17 17 16 16 16 16 16
18 18 18 18 17 17 17 18 18 18 18 18 18 18 18 18 18 18 18 18 18 18 18 17 17 17 17 17 17 17 17 17 17 17 17 17 17 17 16 16 16 16 16
18 18 17 17 17 17 17 17 17 17 18 18 18 18 18 18 18 18 18 18 18 18 18 17 17 17 17 17 17 17 17 17 17 17 17 17 17 16 16 16 16 16 16
18 17 18 17 17 18 18 17 18 17 18 18 18 18 19 19 18 18 18 18 18 18 18 17 17 17 17 17 17 17 17 17 17 17 17 17 17 16 16 16 16 16 16
18 18 18 18 18 17 18 18 17 17 17 17 18 18 19 19 19 18 18 18 18 17 17 17 17 17 17 17 16 17 17 17 17 17 17 16 16 16 16 16 16 16 16
18 18 18 18 18 17 18 17 18 17 17 18 18 18 18 18 18 19 18 18 18 17 17 17 17 17 17 17 17 17 17 17 17 17 17 16 16 16 16 16 16 16 16
18 18 18 18 18 18 18 17 17 17 17 17 17 17 17 17 18 18 18 18 18 17 17 17 17 17 17 16 16 16 16 16 17 17 17 16 16 16 16 16 16 16 16
18 18 18 18 18 18 18 18 17 17 17 17 17 17 17 17 18 18 18 17 17 17 17 17 17 17 17 16 16 16 16 16 16 16 16 16 16 16 16 16 16 16 16
18 18 18 18 18 18 18 18 18 17 17 17 17 17 17 17 17 17 17 17 17 17 17 17 17 17 16 16 16 16 16 16 16 16 16 16 16 16 16 16 16 16 15
18 18 17 17 18 18 17 17 17 17 17 17 17 17 17 17 17 17 17 17 17 17 17 17 17 17 16 16 16 16 16 16 16 16 16 16 16 16 16 15 15 15 15
17 17 17 17 17 17 17 17 17 17 17 17 17 17 17 17 17 17 17 17 17 17 17 17 17 16 16 16 16 16 15 16 16 16 16 16 16 15 15 15 15 15 15
17 17 17 17 17 17 17 17 17 17 17 17 17 17 17 17 17 17 16 16 16 17 17 17 16 16 16 15 15 15 15 15 15 15 15 15 15 15 15 15 15 15 15
17 17 17 17 17 17 17 17 17 17 17 17 17 17 17 17 17 16 16 16 16 16 16 16 16 16 15 15 15 15 15 15 15 15 15 15 15 15 15 15 15 15 15
17 17 17 17 17 17 17 17 16 16 16 16 16 16 16 16 16 16 16 16 16 16 16 15 16 15 15 15 15 15 15 14 14 15 15 15 15 15 15 15 15 15 14
17 17 16 16 16 16 16 16 16 16 16 16 16 16 16 16 16 16 16 16 16 15 15 15 15 15 15 15 15 15 14 14 14 14 15 15 15 15 15 14 14 14 14
16 16 16 16 16 16 16 16 16 16 16 15 15 15 15 15 15 16 15 15 15 15 15 15 15 15 15 15 14 14 14 14 14 14 14 14 14 14 14 14 14 14 14
16 16 16 16 16 15 16 16 16 15 15 15 15 15 15 15 15 15 15 15 15 15 15 15 15 15 14 14 14 14 14 14 14 14 14 14 14 14 14 14 14 14 14
16 16 16 16 15 15 16 16 15 15 15 15 15 15 15 15 15 15 15 15 15 15 15 15 15 14 14 14 14 14 14 14 13 14 13 13 13 13 14 14 14 14 14
16 16 15 15 15 15 15 15 15 15 14 14 15 14 14 15 15 15 15 15 15 15 14 14 14 14 14 14 14 14 13 13 13 13 13 13 13 13 13 13 13 13 13
15 15 15 15 15 15 15 15 15 14 14 14 14 14 14 14 14 14 14 14 14 14 14 14 14 14 14 14 13 13 13 13 13 13 13 13 13 13 13 13 13 13 13
15 15 15 15 14 14 15 15 14 14 14 14 14 14 14 14 14 14 14 14 14 14 14 14 14 14 14 14 13 13 13 13 13 13 13 13 13 13 13 13 13 13 13
14 14 14 14 14 14 14 14 14 14 14 14 14 14 14 14 14 14 14 13 13 13 13 13 13 13 13 13 13 13 13 13 13 13 13 12 12 12 12 12 12 12 12
Wind_Speed
1 1 1 1 1 1 2 2 1 2 2 3 2 1 1 1 1 1 3 8 7 6 6 7 7 7 8 8 9 9 9 9 9 10 10 10 10 10 11 10 10 10 9
1 1 1 0 1 1 0 1 1 2 2 1 2 1 1 1 1 2 2 6 9 8 7 6 6 7 8 9 9 10 10 9 9 10 10 11 10 11 11 11 11 10 10
1 0 0 1 1 1 1 1 1 2 2 2 2 2 2 1 0 1 2 2 5 9 9 7 7 8 8 8 8 9 10 10 10 10 10 11 11 11 11 11 11 11 11
1 1 0 0 0 1 1 1 2 1 1 1 1 2 1 1 1 2 3 3 2 3 8 9 8 8 7 7 7 8 8 9 10 11 11 12 12 12 11 11 11 11 11
2 2 1 0 1 1 1 2 0 2 1 1 2 2 2 2 2 2 2 2 2 3 3 8 10 8 7 6 6 7 8 9 10 11 12 11 12 13 13 13 12 12 12
3 3 2 1 2 1 1 1 1 1 1 2 2 1 2 2 2 2 3 3 3 4 4 3 6 7 8 6 6 6 7 8 9 10 11 12 12 13 13 13 13 13 13
4 4 3 2 2 2 2 2 2 2 1 1 2 2 2 2 2 2 2 2 2 3 3 3 3 3 5 8 7 5 6 7 8 9 10 10 11 12 13 14 14 14 13
4 4 4 3 2 2 2 2 2 2 2 2 2 3 2 2 2 1 2 2 2 2 3 3 3 3 4 3 5 6 6 6 8 8 9 10 11 12 13 13 14 13 13
4 4 4 4 3 3 2 2 3 3 2 2 2 2 3 2 1 1 1 1 1 2 3 2 4 3 4 4 3 6 5 6 7 8 9 10 10 11 12 13 12 12 13
5 5 5 4 4 4 3 4 3 3 4 3 2 2 2 2 3 1 2 2 2 2 3 3 2 3 4 4 3 2 4 5 5 6 8 9 9 10 11 11 12 12 12
4 5 5 5 5 5 5 5 4 4 4 4 3 3 3 3 4 3 2 2 2 3 3 4 3 3 3 4 4 3 5 5 5 5 6 7 9 9 10 10 10 11 11
4 5 5 5 5 5 5 5 5 5 5 4 4 4 4 3 3 3 4 4 3 3 3 3 4 3 3 3 3 3 4 5 5 5 5 6 8 9 9 9 8 8 9
4 4 4 5 5 5 5 5 5 5 5 5 5 4 4 4 4 4 5 4 3 3 3 3 3 3 3 3 2 4 5 5 5 5 5 5 6 7 8 8 8 8 8
4 4 4 5 5 6 5 5 5 6 5 5 6 5 5 4 4 4 4 4 4 4 3 3 2 2 2 2 1 4 4 6 5 5 5 5 5 6 6 7 7 7 7
4 4 5 5 5 5 5 6 5 5 5 5 5 5 5 4 4 4 5 5 5 5 4 3 2 2 2 2 1 3 4 5 6 6 5 5 5 5 6 6 6 6 6
4 4 5 5 5 5 5 5 5 5 6 6 5 5 5 4 4 4 4 4 5 6 5 3 2 2 1 2 3 3 4 5 7 7 6 6 6 6 6 6 6 6 6
5 5 5 4 4 5 5 5 6 6 6 6 6 6 5 5 5 4 4 4 4 5 5 4 3 2 2 3 2 3 4 4 5 8 8 7 6 6 6 6 5 6 6
5 5 5 5 5 5 5 5 6 6 6 6 6 6 6 5 5 5 4 5 4 5 5 5 4 3 4 4 3 3 3 4 4 7 9 8 7 6 6 6 6 6 6
5 5 5 5 5 5 5 6 6 6 7 6 6 7 7 6 6 5 5 5 5 5 5 5 5 3 3 3 3 4 4 3 4 5 9 9 8 8 7 6 6 6 6
5 5 5 5 5 5 5 6 6 6 7 7 7 7 7 6 6 6 5 6 5 5 5 5 5 4 3 3 3 4 3 3 3 3 4 6 8 10 9 8 8 8 7
5 5 5 5 5 5 4 5 6 7 6 6 6 7 7 5 5 5 5 5 5 5 5 5 5 4 4 3 4 4 4 3 4 3 3 4 5 6 7 10 10 9 8
5 5 5 5 5 4 3 4 6 6 6 6 6 7 7 6 5 6 5 5 6 7 6 6 5 5 5 5 4 5 4 4 4 3 4 4 4 4 4 5 7 9 9
5 5 5 5 5 4 3 4 5 6 6 6 6 6 6 4 4 5 5 7 7 7 7 7 6 6 6 5 6 6 5 5 5 3 4 5 4 5 4 4 8 9 9
4 5 5 5 5 3 2 3 5 5 5 5 6 6 5 5 4 4 5 5 6 6 6 6 6 7 6 5 5 6 6 6 5 3 4 5 5 5 4 4 8 10 11
4 4 4 4 4 3 2 3 5 4 4 4 4 4 5 5 2 3 5 5 5 4 4 4 5 5 5 6 6 4 5 4 4 4 3 4 4 4 4 5 7 11 12
3 3 2 2 3 3 1 2 4 4 3 4 3 3 2 2 2 3 5 5 5 5 4 3 4 5 6 6 7 6 6 5 4 4 3 4 4 3 3 4 4 6 8
Wind_Direction
79 85 101 108 132 135 166 182 183 173 190 204 223 225 275 310 267 236 161 167 185 200 207 211 214 215 213 216 211 210 211 211 208 205 204 205 206 203 202 204 205 207 205
78 58 125 128 132 150 130 204 189 188 201 194 217 223 265 277 174 246 224 176 186 195 201 207 211 215 217 216 216 213 214 214 212 209 207 205 205 205 206 210 210 206 206
115 269 134 182 108 144 173 208 211 207 211 205 214 223 224 249 207 236 246 218 189 187 195 208 214 215 217 215 218 218 217 216 215 214 211 209 207 206 206 211 211 208 207
225 260 261 131 105 230 224 215 235 228 233 237 231 243 229 216 233 232 236 219 215 198 190 195 206 211 214 217 218 220 219 217 217 218 217 214 211 209 208 210 210 208 209
226 246 258 297 247 249 269 272 249 272 252 261 243 223 239 233 241 240 246 239 221 230 215 181 188 199 207 213 222 225 223 222 222 221 220 218 215 212 210 211 212 213 214
229 242 233 235 258 259 263 278 272 268 273 270 277 284 261 250 239 232 239 234 228 229 227 205 192 190 195 203 218 229 229 227 225 224 222 221 217 213 212 211 213 215 217
234 240 258 234 251 257 264 261 251 221 236 272 267 264 245 224 220 228 240 253 239 237 230 224 224 216 189 193 204 221 228 228 225 224 224 222 219 216 216 216 216 217 217
239 235 244 253 246 255 246 248 248 254 260 264 276 279 263 214 191 224 234 229 255 250 240 225 224 221 245 219 177 199 222 227 226 225 223 221 220 219 218 220 221 219 218
241 249 247 251 251 256 250 243 241 241 253 254 271 282 284 300 305 192 227 238 248 266 257 239 229 216 232 237 217 186 205 224 229 231 227 223 221 221 218 220 220 222 222
241 241 241 245 254 257 254 251 243 249 250 254 238 241 278 297 281 268 220 215 224 250 254 245 237 217 227 232 216 188 186 211 225 233 230 222 219 220 217 220 222 223 222
234 240 239 242 245 251 253 260 262 255 251 258 263 252 243 240 254 263 269 264 246 247 245 241 246 238 233 237 224 189 187 206 214 226 229 223 218 217 215 218 220 220 219
234 232 236 239 243 249 249 250 251 244 251 260 267 266 257 252 252 255 257 256 266 263 250 249 247 241 233 238 221 144 182 203 208 212 220 221 219 219 217 214 215 216 221
244 239 244 242 245 242 247 252 248 255 248 247 252 260 263 264 261 255 257 261 267 269 259 244 233 236 243 240 209 168 187 197 209 209 208 212 212 213 215 216 220 222 222
259 260 252 249 248 247 248 246 249 248 246 245 252 257 258 257 261 255 256 257 262 262 251 258 246 234 236 243 196 198 196 186 203 207 210 212 213 214 215 214 217 217 219
254 248 251 254 254 253 253 253 252 253 250 250 252 248 250 251 249 252 252 250 255 263 267 251 248 234 234 216 175 220 214 180 190 203 208 211 215 216 214 211 211 213 212
255 257 256 256 258 257 253 252 252 249 249 248 251 255 256 253 250 248 248 248 247 255 267 267 262 260 268 251 194 223 220 188 192 200 206 208 211 214 215 213 210 206 203
252 254 255 256 258 261 261 253 254 252 251 252 251 245 244 252 257 255 250 247 242 241 250 264 257 239 235 253 245 237 228 221 198 188 199 204 206 205 202 202 199 196 197
248 245 249 253 257 257 257 255 258 255 253 253 252 252 250 244 245 253 254 250 243 238 241 254 259 247 236 232 236 245 241 231 231 175 184 192 197 199 197 198 198 198 200
247 246 244 249 258 263 261 259 258 257 255 256 255 251 250 245 244 246 248 247 244 240 243 250 260 259 252 237 226 233 235 237 239 189 182 188 194 196 196 196 197 199 201
245 244 246 251 255 258 260 261 258 255 254 253 252 250 247 242 239 240 238 238 241 242 238 242 251 256 252 241 225 231 235 232 235 225 203 196 190 194 199 202 203 201 202
244 247 249 253 257 254 260 263 259 255 254 254 251 251 248 240 237 235 243 238 238 241 243 245 250 252 247 245 236 236 241 242 230 228 227 219 201 206 203 204 206 204 203
248 247 249 253 256 263 286 286 269 263 258 253 252 251 249 230 217 217 225 234 239 238 243 247 249 254 252 245 242 243 236 234 244 232 234 236 224 227 220 209 189 190 200
245 245 246 250 253 260 263 262 267 263 260 257 255 252 254 250 225 233 223 223 231 235 237 241 243 251 258 252 245 243 237 242 246 237 231 242 231 235 228 194 177 190 199
250 248 246 246 247 246 241 252 264 252 261 264 254 246 243 248 248 250 241 239 242 241 240 241 248 255 259 267 253 243 240 238 245 234 226 244 238 235 231 210 183 193 201
254 253 245 243 248 249 241 258 263 251 251 258 257 250 240 235 239 259 242 243 248 249 230 221 235 247 256 256 254 246 243 239 250 251 238 248 248 240 235 225 193 189 197
250 255 244 239 243 256 237 268 270 255 255 254 248 239 210 237 247 244 242 244 249 257 261 253 230 230 238 232 222 231 242 243 252 258 238 241 248 247 247 230 215 200 201
Height
1547 1547 1547 1547 1548 1549 1549 1549 1550 1550 1550 1551 1551 1551 1551 1551 1550 1550 1551 1551 1551 1551 1551 1552 1552 1552 1552 1553 1553 1554 1554 1555 1555 1556 1557 1558 1558 1559 1561 1561 1562 1563 1564
1547 1547 1548 1547 1548 1549 1549 1549 1550 1550 1550 1550 1551 1550 1550 1550 1548 1548 1550 1550 1550 1550 1550 1550 1550 1550 1550 1551 1551 1552 1552 1553 1553 1554 1555 1556 1557 1557 1558 1560 1561 1561 1562
1547 1547 1548 1548 1548 1548 1548 1548 1549 1549 1549 1550 1550 1550 1550 1549 1548 1548 1549 1550 1549 1549 1549 1548 1549 1549 1549 1549 1549 1550 1550 1551 1551 1552 1553 1554 1554 1555 1556 1557 1558 1559 1560
1547 1547 1547 1548 1547 1548 1548 1548 1548 1549 1549 1549 1549 1549 1549 1548 1548 1548 1548 1549 1549 1549 1548 1547 1547 1547 1547 1548 1548 1548 1548 1548 1549 1550 1550 1551 1552 1553 1554 1555 1556 1557 1558
1547 1547 1547 1547 1547 1547 1548 1548 1548 1548 1548 1548 1548 1548 1548 1548 1547 1547 1547 1548 1547 1547 1547 1546 1546 1546 1546 1546 1546 1546 1546 1546 1547 1547 1548 1548 1549 1550 1551 1552 1553 1555 1556
1546 1546 1547 1546 1547 1547 1547 1547 1546 1547 1547 1547 1548 1547 1547 1546 1546 1546 1546 1546 1546 1546 1546 1546 1545 1545 1544 1544 1544 1544 1544 1544 1544 1545 1545 1546 1546 1547 1548 1549 1551 1552 1553
1545 1545 1546 1546 1545 1546 1545 1546 1546 1546 1546 1546 1546 1546 1546 1545 1545 1545 1545 1545 1545 1544 1544 1544 1544 1544 1543 1542 1542 1542 1541 1541 1541 1542 1542 1543 1544 1544 1545 1547 1548 1549 1550
1544 1545 1544 1545 1545 1544 1544 1544 1544 1545 1545 1545 1545 1545 1544 1545 1543 1543 1543 1543 1543 1543 1543 1542 1542 1541 1542 1541 1540 1539 1539 1539 1539 1539 1540 1540 1541 1541 1542 1543 1544 1546 1547
1542 1542 1543 1543 1543 1543 1544 1543 1543 1543 1544 1544 1544 1544 1543 1542 1542 1542 1542 1541 1541 1541 1541 1540 1540 1540 1539 1539 1538 1537 1536 1536 1536 1536 1537 1537 1538 1538 1539 1540 1541 1542 1543
1540 1541 1541 1541 1541 1542 1542 1542 1542 1542 1542 1542 1542 1541 1542 1541 1542 1540 1541 1540 1539 1538 1538 1539 1538 1537 1537 1537 1536 1535 1534 1534 1533 1533 1534 1534 1535 1535 1536 1537 1538 1538 1539
1538 1538 1539 1539 1539 1540 1540 1540 1540 1540 1540 1540 1540 1540 1540 1539 1539 1539 1538 1538 1537 1537 1536 1536 1536 1535 1535 1534 1534 1533 1532 1532 1531 1531 1531 1531 1532 1532 1533 1534 1535 1535 1536
1536 1536 1536 1536 1537 1537 1537 1537 1537 1537 1537 1537 1537 1538 1538 1537 1537 1537 1536 1535 1535 1535 1534 1533 1533 1533 1533 1532 1532 1530 1530 1529 1529 1529 1528 1529 1529 1529 1530 1531 1532 1532 1533
1534 1534 1534 1534 1534 1534 1534 1535 1535 1535 1535 1534 1534 1535 1535 1534 1534 1534 1534 1533 1533 1532 1532 1531 1531 1531 1530 1530 1529 1528 1527 1527 1527 1526 1526 1526 1526 1527 1528 1528 1529 1529 1530
1532 1532 1531 1531 1531 1531 1532 1532 1532 1532 1532 1531 1532 1532 1531 1531 1531 1531 1531 1531 1530 1530 1530 1530 1529 1528 1528 1528 1527 1526 1525 1525 1525 1525 1524 1524 1524 1525 1525 1526 1526 1527 1527
1529 1528 1528 1528 1529 1529 1529 1529 1529 1529 1529 1529 1529 1529 1529 1528 1528 1528 1528 1528 1529 1527 1527 1527 1527 1526 1526 1525 1524 1524 1523 1523 1523 1522 1522 1522 1522 1522 1523 1523 1524 1524 1525
1525 1525 1525 1525 1526 1525 1525 1525 1525 1526 1526 1525 1525 1525 1525 1526 1525 1525 1524 1524 1525 1525 1525 1524 1524 1524 1523 1523 1523 1522 1521 1521 1520 1520 1520 1520 1520 1520 1521 1521 1522 1522 1523
1521 1521 1522 1522 1522 1522 1522 1522 1522 1522 1522 1522 1522 1522 1522 1522 1522 1522 1522 1521 1521 1522 1522 1522 1522 1521 1520 1520 1520 1519 1519 1518 1518 1518 1518 1518 1518 1518 1519 1519 1519 1520 1520
1518 1518 1518 1519 1519 1519 1519 1518 1518 1519 1519 1518 1518 1518 1518 1519 1518 1519 1519 1519 1519 1519 1519 1518 1518 1518 1518 1517 1517 1516 1516 1516 1516 1516 1515 1515 1515 1516 1516 1516 1517 1517 1518
1515 1515 1515 1515 1515 1515 1515 1515 1515 1515 1515 1515 1515 1515 1515 1515 1515 1515 1515 1515 1516 1516 1516 1516 1515 1515 1515 1515 1514 1514 1514 1513 1513 1513 1512 1512 1512 1513 1513 1513 1514 1514 1515
1511 1511 1511 1511 1511 1511 1511 1511 1511 1511 1511 1511 1511 1511 1511 1511 1511 1511 1511 1512 1512 1512 1512 1512 1512 1512 1512 1511 1511 1511 1511 1510 1510 1511 1510 1510 1509 1509 1510 1510 1511 1511 1511
1508 1507 1507 1507 1507 1507 1507 1507 1507 1507 1507 1507 1507 1507 1507 1507 1507 1507 1508 1508 1508 1509 1509 1509 1509 1509 1509 1508 1508 1508 1507 1507 1507 1507 1507 1507 1507 1507 1507 1507 1507 1507 1508
1504 1504 1503 1503 1503 1503 1503 1503 1503 1503 1503 1503 1503 1503 1503 1503 1503 1504 1504 1505 1505 1505 1505 1506 1505 1505 1505 1505 1505 1505 1505 1504 1504 1504 1504 1504 1504 1504 1504 1504 1503 1504 1504
1500 1500 1500 1499 1499 1499 1499 1499 1499 1499 1499 1499 1499 1499 1500 1500 1500 1500 1500 1501 1501 1501 1502 1502 1502 1501 1501 1501 1501 1501 1501 1501 1500 1501 1501 1501 1501 1501 1501 1500 1500 1500 1500
1497 1496 1496 1496 1495 1495 1495 1495 1495 1495 1495 1495 1494 1494 1495 1495 1496 1496 1497 1497 1497 1498 1498 1498 1497 1497 1498 1498 1497 1498 1497 1497 1497 1497 1497 1497 1497 1497 1497 1497 1496 1496 1496
1493 1493 1493 1493 1492 1492 1492 1492 1492 1492 1492 1491 1490 1491 1491 1492 1492 1493 1493 1493 1494 1494 1494 1494 1494 1494 1494 1494 1494 1495 1495 1495 1494 1494 1494 1494 1494 1494 1494 1493 1493 1492 1492
1490 1490 1490 1490 1490 1490 1490 1490 1490 1490 1490 1489 1488 1488 1488 1489 1489 1489 1490 1490 1490 1490 1490 1491 1491 1491 1491 1491 1491 1491 1491 1491 1491 1491 1490 1490 1491 1491 1491 1490 1490 1490 1489